Location: Strohbehn Observatory
(42.4649°N, 93.8239°W)
Time: 07:39:59
(UTC-05:00)

SL-16 R/B - Visible Passes

Search period start: 27 July 2017 00:00
Search period end: 06 August 2017 00:00
Orbit: 843 x 845 km, 71.0° (Epoch: 26 July)

Date Brightness Start Highest point End Pass type
(mag) Time Alt. Az. Time Alt. Az. Time Alt. Az.
27 Jul 4.1 01:02:31 17° E 01:02:31 17° E 01:05:17 10° ENE visible
27 Jul 2.2 02:44:23 60° WSW 02:45:07 66° WNW 02:50:47 10° NNE visible
27 Jul 4.4 04:28:02 10° WNW 04:30:23 12° NW 04:32:44 10° NNW visible
28 Jul 4.2 00:48:33 16° E 00:48:33 16° E 00:50:56 10° ENE visible
28 Jul 2.2 02:30:24 65° W 02:30:51 69° WNW 02:36:32 10° NNE visible
28 Jul 4.4 04:13:34 10° WNW 04:16:05 13° NW 04:18:36 10° NNW visible
29 Jul 4.2 00:34:32 15° E 00:34:32 15° E 00:36:34 10° ENE visible
29 Jul 2.2 02:16:24 70° W 02:16:35 71° WNW 02:22:17 10° NNE visible
29 Jul 4.4 03:59:07 10° WNW 04:01:46 13° NW 04:04:27 10° NNW visible
30 Jul 4.3 00:20:30 14° E 00:20:30 14° E 00:22:11 10° ENE visible
30 Jul 2.2 02:02:22 74° WNW 02:02:22 74° WNW 02:08:01 10° NNE visible
30 Jul 4.4 03:44:40 10° WNW 03:47:28 14° NW 03:50:18 10° NNW visible
31 Jul 4.3 00:06:27 13° ENE 00:06:27 13° ENE 00:07:47 10° ENE visible
31 Jul 2.2 01:48:18 75° NW 01:48:18 75° NW 01:53:46 10° NNE visible
31 Jul 4.4 03:30:14 10° WNW 03:33:10 14° NW 03:36:08 10° NNW visible
31 Jul 4.4 23:52:21 12° ENE 23:52:21 12° ENE 23:53:23 10° ENE visible
01 Aug 2.3 01:34:12 74° NNW 01:34:12 74° NNW 01:39:30 10° NNE visible
01 Aug 4.4 03:16:03 11° WNW 03:18:52 15° NW 03:21:57 10° NNW visible
01 Aug 4.4 23:38:13 12° ENE 23:38:13 12° ENE 23:38:58 10° ENE visible
02 Aug 2.3 01:20:04 73° N 01:20:04 73° N 01:25:15 10° NNE visible
02 Aug 4.4 03:01:55 11° WNW 03:04:34 15° NW 03:07:46 10° N visible
02 Aug 4.4 23:24:04 11° ENE 23:24:04 11° ENE 23:24:32 10° ENE visible
03 Aug 2.3 01:05:55 71° N 01:05:55 71° N 01:10:59 10° NNE visible
03 Aug 4.4 02:47:45 12° WNW 02:50:16 16° NW 02:53:35 10° N visible
03 Aug 4.4 23:09:52 10° ENE 23:09:52 10° ENE 23:10:05 10° ENE visible
04 Aug 2.3 00:51:42 70° NNE 00:51:42 70° NNE 00:56:44 10° NNE visible
04 Aug 4.4 02:33:33 13° WNW 02:35:58 16° NW 02:39:24 10° N visible
05 Aug 2.3 00:37:28 70° NNE 00:37:28 70° NNE 00:42:28 10° NNE visible
05 Aug 4.4 02:19:18 13° WNW 02:21:40 16° NW 02:25:13 10° N visible
